Weather History for KHBG - September, 2013

Change the Weather History Date:

Tuesday, September 17, 2013

  Actual Average Record
Temperature  
Mean Temperature 80 °F 77 °F  
Max Temperature 94 °F 88 °F 97 °F (1953)
Min Temperature 66 °F 66 °F 50 °F (1961)
Degree Days  
Heating Degree Days 0 0  
Month to date heating degree days 0 0  
Since 1 July heating degree days 0 0  
Cooling Degree Days 15 12  
Month to date cooling degree days 282 232  
Year to date cooling degree days 2061 2103  
Growing Degree Days 30 (Base 50)    
Moisture  
Dew Point 66 °F    
Average Humidity 67    
Maximum Humidity 97    
Minimum Humidity 36    
Precipitation  
Precipitation 0.00 in 0.13 in 2.27 in (1971)
Month to date precipitation 2.13 2.47  
Year to date precipitation 54.30 44.63  
Sea Level Pressure  
Sea Level Pressure 30.05 in    
Wind  
Wind Speed 3 mph (East)    
Max Wind Speed 20 mph    
Max Gust Speed 33 mph    
Visibility 8 miles    
Events      
T = Trace of Precipitation, MM = Missing Value Source: NWS Daily Summary

Daily Weather History Graph

Daily Weather History Graph

Search for Another Location

Airport or City:

Trip Planner

Search our weather history database for the weather conditions in past years. The results will help you decide how hot, cold, wet, or windy it might be!

Date:

Astronomy

Sep. 17, 2013 Rise Set
Actual Time 6:42 AM CDT 6:59 PM CDT
Civil Twilight 6:18 AM CDT 7:24 PM CDT
Nautical Twilight 5:49 AM CDT 7:52 PM CDT
Astronomical Twilight 5:21 AM CDT 8:20 PM CDT
Moon 5:43 PM CDT (9/17) 4:42 AM CDT (9/17)
Length of Visible Light 13h 05m
Length of Day
12h 17m
Waxing Gibbous, 96% of the Moon is Illuminated
Sep 17
Waxing Gibbous
Sep 19
Full
Sep 26
Last Quarter
Oct 4
New
Oct 11
First Quarter

Hourly Weather History & Observations

Time (CDT) Temp. Heat Index Dew Point Humidity Pressure Visibility Wind Dir Wind Speed Gust Speed Precip Events Conditions
12:53 AM 72.0 °F - 69.1 °F 91% 30.06 in 8.0 mi SSE 3.5 mph - N/A   Clear
1:53 AM 71.1 °F - 69.1 °F 93% 30.06 in 5.0 mi Calm Calm - N/A   Clear
2:53 AM 70.0 °F - 68.0 °F 93% 30.05 in 4.0 mi Calm Calm - N/A   Clear
3:53 AM 69.1 °F - 66.9 °F 93% 30.05 in 4.0 mi Calm Calm - N/A   Clear
4:53 AM 69.1 °F - 66.9 °F 93% 30.05 in 5.0 mi Calm Calm - N/A   Clear
5:53 AM 66.9 °F - 64.9 °F 93% 30.06 in 4.0 mi Calm Calm - N/A   Clear
6:53 AM 66.0 °F - 64.9 °F 96% 30.07 in 2.5 mi NW 3.5 mph - N/A   Clear
7:05 AM 69.8 °F - 66.2 °F 88% 30.09 in 5.0 mi Calm Calm - N/A   Clear
7:53 AM 71.1 °F - 66.9 °F 87% 30.09 in 5.0 mi Calm Calm - N/A   Clear
8:53 AM 77.0 °F - 66.9 °F 71% 30.10 in 10.0 mi Variable 5.8 mph 26.5 mph N/A   Clear
9:53 AM 82.0 °F 84.1 °F 66.0 °F 58% 30.11 in 10.0 mi SE 6.9 mph - N/A   Clear
10:53 AM 86.0 °F 88.2 °F 66.0 °F 51% 30.11 in 10.0 mi East 4.6 mph - N/A   Clear
11:53 AM 89.1 °F 91.3 °F 66.0 °F 46% 30.09 in 10.0 mi ESE 4.6 mph - N/A   Clear
12:53 PM 91.0 °F 91.9 °F 63.0 °F 39% 30.07 in 10.0 mi ENE 9.2 mph - N/A   Clear
1:53 PM 93.0 °F 93.8 °F 62.1 °F 36% 30.04 in 10.0 mi Variable 5.8 mph - N/A   Clear
2:53 PM 91.9 °F 91.8 °F 61.0 °F 35% 30.02 in 10.0 mi Variable 4.6 mph - N/A   Clear
3:53 PM 93.0 °F 93.8 °F 62.1 °F 36% 30.00 in 10.0 mi ENE 8.1 mph - N/A   Clear
4:53 PM 91.9 °F 91.8 °F 61.0 °F 35% 29.99 in 10.0 mi NNE 19.6 mph 33.4 mph N/A   Clear
5:53 PM 91.0 °F 91.5 °F 62.1 °F 38% 29.98 in 10.0 mi East 4.6 mph - N/A   Clear
6:53 PM 81.0 °F 83.3 °F 66.9 °F 62% 29.99 in 10.0 mi North 4.6 mph 28.8 mph N/A   Clear
7:53 PM 80.1 °F 82.1 °F 66.0 °F 62% 30.01 in 10.0 mi Calm Calm - N/A   Clear
8:53 PM 75.9 °F - 69.1 °F 79% 30.02 in 10.0 mi Calm Calm - N/A   Clear
9:53 PM 73.9 °F - 68.0 °F 82% 30.04 in 10.0 mi SSE 3.5 mph - N/A   Clear
10:53 PM 73.0 °F - 66.9 °F 81% 30.04 in 10.0 mi Calm Calm - N/A   Clear
11:53 PM 72.0 °F - 66.9 °F 84% 30.04 in 10.0 mi Calm Calm - N/A   Clear